EW3649 Weather Reports


Display with metric or nautical units.
time (UTC)temp
F
wind
direction
speed
MPH
gust
MPH
rain 1hr
in
rain 24hr
in
rain mn
in
humidity
%
barometer
mb
20260507044505 54 0 0.0 0.0 0.00 0.00 0.00 82 1020.8
20260507043505 54 0 0.0 0.0 0.00 0.00 0.00 81 1020.7
20260507042505 55 0 0.0 0.0 0.00 0.00 0.00 81 1020.6
20260507042006 55 0 0.0 0.0 0.00 0.00 0.00 81 1020.7
20260507041505 55 0 0.0 0.0 0.00 0.00 0.00 80 1020.7
20260507041006 55 0 0.0 0.0 0.00 0.00 0.00 80 1020.7
20260507040005 55 265 0.0 1.0 0.00 0.00 0.00 80 1020.6
20260507035504 55 265 0.0 3.0 0.00 0.00 0.00 80 1020.6
20260507035007 55 265 0.0 3.0 0.00 0.00 0.00 80 1020.6
20260507034505 55 265 0.0 3.0 0.00 0.00 0.00 79 1020.4
20260507034005 55 0 0.0 0.0 0.00 0.00 0.00 80 1020.5
20260507033505 55 0 0.0 0.0 0.00 0.00 0.00 80 1020.4
20260507033006 55 0 0.0 0.0 0.00 0.00 0.00 80 1020.3
20260507032504 55 0 0.0 0.0 0.00 0.00 0.00 79 1020.4
20260507032005 55 0 0.0 0.0 0.00 0.00 0.00 79 1020.3
20260507031006 56 265 0.0 3.0 0.00 0.00 0.00 79 1020.2
20260507030005 56 265 0.0 4.0 0.00 0.00 0.00 79 1020.1
20260507025504 56 0 0.0 0.0 0.00 0.00 0.00 79 1020.1
20260507025005 56 0 0.0 0.0 0.00 0.00 0.00 78 1020.1
20260507024505 56 0 0.0 0.0 0.00 0.00 0.00 78 1020.1
20260507023505 56 266 0.0 2.0 0.00 0.00 0.00 78 1019.9
20260507023004 56 266 0.0 3.0 0.00 0.00 0.00 78 1019.9
20260507022505 56 266 0.0 4.0 0.00 0.00 0.00 78 1019.9
20260507022005 56 266 0.0 4.0 0.00 0.00 0.00 78 1019.9
20260507021505 56 0 0.0 0.0 0.00 0.00 0.00 79 1019.9
20260507020504 56 267 0.0 1.0 0.00 0.00 0.00 79 1020.0
20260507015504 56 0 0.0 0.0 0.00 0.00 0.00 79 1020.0
20260507015006 56 0 0.0 0.0 0.00 0.00 0.00 79 1019.9
20260507014505 56 267 0.0 1.0 0.00 0.00 0.00 80 1019.9
20260507014005 56 267 0.0 1.0 0.00 0.00 0.00 80 1019.9
20260507013505 56 0 0.0 0.0 0.00 0.00 0.00 79 1019.9
20260507013006 56 0 0.0 0.0 0.00 0.00 0.00 79 1019.9
20260507012005 57 0 0.0 0.0 0.00 0.00 0.00 78 1020.0
20260507010504 57 0 0.0 0.0 0.00 0.00 0.00 77 1020.0
20260507010006 57 0 0.0 0.0 0.00 0.00 0.00 77 1020.0
20260507005505 57 0 0.0 0.0 0.00 0.00 0.00 77 1020.0
20260507005005 57 0 0.0 0.0 0.00 0.00 0.00 77 1020.1
20260507004504 57 0 0.0 0.0 0.00 0.00 0.00 78 1020.1
20260507004005 57 0 0.0 0.0 0.00 0.00 0.00 79 1020.1
20260507003504 57 267 0.0 3.0 0.00 0.00 0.00 78 1020.1
20260507003006 57 267 0.0 3.0 0.00 0.00 0.00 77 1020.2
20260507002504 57 0 0.0 0.0 0.00 0.00 0.00 77 1020.1
20260507002006 57 0 0.0 0.0 0.00 0.00 0.00 77 1020.2
20260507001505 57 0 0.0 0.0 0.00 0.00 0.00 77 1020.2
20260507000505 57 266 0.0 1.0 0.00 0.00 0.00 77 1020.1
20260507000005 57 266 0.0 3.0 0.00 0.00 0.00 77 1020.2
20260506235505 57 266 0.0 3.0 0.00 0.00 0.00 78 1020.1
20260506235005 57 0 0.0 0.0 0.00 0.00 0.00 78 1020.2
20260506234504 56 0 0.0 0.0 0.00 0.00 0.00 78 1020.1
20260506234004 56 0 0.0 0.0 0.00 0.00 0.00 79 1020.1
20260506233505 56 0 0.0 0.0 0.00 0.00 0.00 78 1020.2
20260506233006 56 0 0.0 0.0 0.00 0.00 0.00 78 1020.2
20260506232504 56 0 0.0 0.0 0.00 0.00 0.00 78 1020.2
20260506231505 56 0 0.0 0.0 0.00 0.00 0.00 78 1020.3
20260506230005 56 0 0.0 0.0 0.00 0.00 0.00 78 1020.2
20260506225504 56 0 0.0 0.0 0.00 0.00 0.00 78 1020.3
20260506225006 56 0 0.0 0.0 0.00 0.00 0.00 78 1020.3
20260506224504 56 0 0.0 0.0 0.00 0.00 0.00 79 1020.3
20260506224006 56 0 0.0 0.0 0.00 0.00 0.00 79 1020.3
20260506222505 56 0 0.0 0.0 0.00 0.00 0.00 79 1020.5
20260506222005 56 269 0.0 1.0 0.00 0.00 0.00 78 1020.6
20260506221505 56 269 0.0 1.0 0.00 0.00 0.00 78 1020.6
20260506220505 56 0 0.0 0.0 0.00 0.00 0.00 78 1020.6
20260506220004 56 269 0.0 3.0 0.00 0.00 0.00 78 1020.5
20260506215505 56 269 0.0 3.0 0.00 0.00 0.00 78 1020.6
20260506215006 56 270 0.0 3.0 0.00 0.00 0.00 78 1020.6
20260506214504 56 0 0.0 0.0 0.00 0.00 0.00 79 1020.5
20260506214005 56 0 0.0 0.0 0.00 0.00 0.00 80 1020.5
20260506213504 56 0 0.0 0.0 0.00 0.00 0.00 79 1020.5
20260506213005 56 270 0.0 2.0 0.00 0.00 0.00 79 1020.5
20260506211504 56 0 0.0 0.0 0.00 0.00 0.00 80 1020.5
20260506211005 56 0 0.0 0.0 0.00 0.00 0.00 80 1020.5
20260506210504 56 0 0.0 0.0 0.00 0.00 0.00 80 1020.5
20260506210005 55 0 0.0 0.0 0.00 0.00 0.00 80 1020.5
20260506205504 55 0 0.0 0.0 0.00 0.00 0.00 80 1020.5
20260506205005 56 0 0.0 0.0 0.00 0.00 0.00 80 1020.5
20260506204505 56 0 0.0 0.0 0.00 0.00 0.00 82 1020.4
20260506204005 56 0 0.0 0.0 0.00 0.00 0.00 82 1020.5
20260506203504 56 0 0.0 0.0 0.00 0.00 0.00 82 1020.4
20260506203006 55 0 0.0 0.0 0.00 0.00 0.00 82 1020.3
20260506202504 55 0 0.0 0.0 0.00 0.00 0.00 82 1020.3
20260506202006 55 0 0.0 0.0 0.00 0.00 0.00 82 1020.3
20260506201504 55 0 0.0 0.0 0.00 0.00 0.00 83 1020.3
20260506201005 55 0 0.0 0.0 0.00 0.00 0.00 82 1020.3
20260506200504 55 0 0.0 0.0 0.00 0.00 0.00 83 1020.3
20260506200006 55 0 0.0 0.0 0.00 0.00 0.00 83 1020.3
20260506195504 55 0 0.0 0.0 0.00 0.00 0.00 82 1020.3
20260506194504 55 0 0.0 0.0 0.00 0.00 0.00 82 1020.3
20260506194004 55 0 0.0 0.0 0.00 0.00 0.00 82 1020.2
20260506193505 55 0 0.0 0.0 0.00 0.00 0.00 83 1020.2
20260506192504 56 0 0.0 0.0 0.00 0.00 0.00 83 1020.1
20260506191505 55 0 0.0 0.0 0.00 0.00 0.00 84 1020.1
20260506191005 55 0 0.0 0.0 0.00 0.00 0.00 84 1020.2
20260506185504 56 269 0.0 3.0 0.00 0.00 0.00 83 1020.1
20260506184504 56 269 0.0 1.0 0.00 0.00 0.00 83 1020.2
20260506184006 56 269 0.0 1.0 0.00 0.00 0.00 82 1020.2
20260506183504 56 269 0.0 2.0 0.00 0.00 0.00 82 1020.1
20260506183006 56 269 0.0 3.0 0.00 0.00 0.00 82 1020.1
20260506182504 56 269 0.0 3.0 0.00 0.00 0.00 83 1019.8
20260506182006 56 0 0.0 0.0 0.00 0.00 0.00 83 1019.8
20260506181505 56 270 0.0 3.0 0.00 0.00 0.00 84 1019.8
20260506181005 55 270 0.0 3.0 0.00 0.00 0.00 84 1019.9
20260506180504 55 0 0.0 0.0 0.00 0.00 0.00 84 1019.9
20260506175504 55 271 0.0 4.0 0.00 0.00 0.00 84 1019.9
20260506174504 54 274 0.0 1.0 0.00 0.00 0.00 86 1020.1
20260506174005 54 274 0.0 2.0 0.00 0.00 0.00 85 1020.0
20260506173504 54 275 0.0 2.0 0.00 0.00 0.00 85 1020.0
20260506173005 54 275 0.0 2.0 0.00 0.00 0.00 85 1020.0
20260506172006 54 275 0.0 2.0 0.00 0.00 0.00 86 1020.0
20260506171505 54 277 0.0 4.0 0.00 0.00 0.00 87 1019.9
20260506171005 54 278 0.0 4.0 0.00 0.00 0.00 86 1019.9
20260506170505 54 280 0.0 3.0 0.00 0.00 0.00 87 1020.0
20260506170006 54 286 0.0 2.0 0.00 0.00 0.00 87 1019.8
20260506165504 54 287 0.0 2.0 0.00 0.00 0.00 87 1019.8
20260506165005 54 0 0.0 0.0 0.00 0.00 0.00 88 1019.8
20260506164505 54 312 0.0 2.0 0.00 0.00 0.00 88 1019.6
20260506164005 54 313 0.0 2.0 0.00 0.00 0.00 89 1019.4
20260506163504 53 314 0.0 2.0 0.00 0.00 0.00 89 1019.4
20260506162504 53 314 0.0 3.0 0.00 0.00 0.00 90 1019.4
20260506162005 53 314 0.0 3.0 0.00 0.00 0.00 90 1019.3
20260506161503 53 0 0.0 0.0 0.00 0.00 0.00 90 1019.4
20260506161005 53 0 0.0 0.0 0.00 0.00 0.00 90 1019.4
20260506160005 53 314 0.0 1.0 0.00 0.00 0.00 90 1019.7
20260506155504 53 314 0.0 1.0 0.00 0.00 0.00 90 1019.7
20260506155006 53 316 0.0 3.0 0.00 0.00 0.00 90 1019.7
20260506154504 53 316 0.0 3.0 0.00 0.00 0.00 90 1019.7
20260506154006 53 324 0.0 2.0 0.00 0.00 0.00 90 1019.6
20260506153504 53 324 0.0 2.0 0.00 0.00 0.00 91 1019.5
20260506153006 53 0 0.0 0.0 0.00 0.00 0.00 91 1019.4
20260506152504 53 0 0.0 0.0 0.00 0.00 0.00 91 1019.3
20260506152006 53 0 0.0 0.0 0.00 0.00 0.00 91 1019.3
20260506151503 53 0 0.0 0.0 0.00 0.00 0.00 91 1019.5
20260506151005 53 327 0.0 2.0 0.00 0.00 0.00 91 1019.5
20260506150504 53 327 0.0 2.0 0.00 0.00 0.00 90 1019.5
20260506150006 53 327 0.0 1.0 0.00 0.00 0.00 90 1019.5
20260506145504 53 327 0.0 1.0 0.00 0.00 0.00 91 1019.6
20260506145007 53 327 0.0 1.0 0.00 0.00 0.00 91 1019.6
20260506144504 53 326 0.0 2.0 0.00 0.00 0.00 91 1019.4
20260506144005 53 326 0.0 2.0 0.00 0.00 0.00 91 1019.3
20260506143504 53 237 0.0 1.0 0.00 0.00 0.00 91 1019.2
20260506143005 53 196 0.0 1.0 0.00 0.00 0.00 91 1019.0
20260506142504 53 0 0.0 0.0 0.00 0.00 0.00 91 1019.0
20260506142006 53 0 0.0 0.0 0.00 0.00 0.00 91 1019.2
20260506141504 53 0 0.0 0.0 0.00 0.00 0.00 91 1019.2
20260506141006 52 0 0.0 0.0 0.00 0.00 0.00 91 1019.2
20260506140505 52 0 0.0 0.0 0.00 0.00 0.00 91 1019.4
20260506140005 52 0 0.0 0.0 0.00 0.00 0.00 91 1019.1
20260506135504 52 0 0.0 0.0 0.00 0.00 0.00 91 1019.1
20260506135004 52 0 0.0 0.0 0.00 0.00 0.00 91 1019.2
20260506134504 53 0 0.0 0.0 0.00 0.00 0.00 91 1019.2
20260506134005 53 0 0.0 0.0 0.00 0.00 0.00 91 1019.0
20260506133504 53 0 0.0 0.0 0.00 0.00 0.00 92 1019.0
20260506133005 53 0 0.0 0.0 0.00 0.00 0.00 92 1019.1
20260506132505 53 0 0.0 0.0 0.00 0.00 0.00 91 1018.9
20260506132006 53 0 0.0 0.0 0.00 0.00 0.00 91 1018.6
20260506130005 53 0 0.0 0.0 0.00 0.00 0.00 91 1018.8
20260506125504 53 0 0.0 0.0 0.00 0.00 0.00 91 1018.7
20260506125005 53 0 0.0 0.0 0.00 0.00 0.00 91 1018.6
20260506124504 53 0 0.0 0.0 0.00 0.00 0.00 91 1018.6
20260506124006 53 0 0.0 0.0 0.00 0.00 0.00 91 1018.5
20260506123505 53 0 0.0 0.0 0.00 0.00 0.00 91 1018.5
20260506123006 53 0 0.0 0.0 0.00 0.00 0.00 90 1018.4
20260506122504 53 0 0.0 0.0 0.00 0.00 0.00 90 1018.4
20260506122005 53 0 0.0 0.0 0.00 0.00 0.00 90 1018.5
20260506121504 53 0 0.0 0.0 0.00 0.00 0.00 90 1018.4
20260506121005 53 0 0.0 0.0 0.00 0.00 0.00 90 1018.4
20260506120504 53 0 0.0 0.0 0.00 0.00 0.00 90 1018.3
20260506120005 53 0 0.0 0.0 0.00 0.00 0.00 89 1018.2
20260506115504 53 0 0.0 0.0 0.00 0.00 0.00 89 1018.2
20260506114504 54 0 0.0 0.0 0.00 0.00 0.00 88 1018.2
20260506114005 54 0 0.0 0.0 0.00 0.00 0.00 88 1018.3
20260506113504 54 0 0.0 0.0 0.00 0.00 0.00 88 1018.3
20260506113005 54 0 0.0 0.0 0.00 0.00 0.00 87 1018.3
20260506112503 54 0 0.0 0.0 0.00 0.00 0.00 87 1018.3
20260506112006 54 0 0.0 0.0 0.00 0.00 0.00 87 1018.3
20260506111504 54 0 0.0 0.0 0.00 0.00 0.00 86 1018.2
20260506111006 54 194 0.0 1.0 0.00 0.00 0.00 86 1018.1
20260506110504 54 194 0.0 1.0 0.00 0.00 0.00 86 1018.0
20260506110005 54 194 0.0 1.0 0.00 0.00 0.00 86 1018.1
20260506105503 54 0 0.0 0.0 0.00 0.00 0.00 86 1018.0
20260506105005 54 0 0.0 0.0 0.00 0.00 0.00 86 1018.0
20260506104505 54 0 0.0 0.0 0.00 0.00 0.00 86 1018.0
20260506104006 54 0 0.0 0.0 0.00 0.00 0.00 86 1017.9
20260506103503 54 0 0.0 0.0 0.00 0.00 0.00 86 1017.9
20260506103004 54 0 0.0 0.0 0.00 0.00 0.00 86 1017.8
20260506102504 54 0 0.0 0.0 0.00 0.00 0.00 86 1017.8
20260506102005 54 0 0.0 0.0 0.00 0.00 0.00 86 1017.7
20260506101503 54 0 0.0 0.0 0.00 0.00 0.00 85 1017.6
20260506101004 54 0 0.0 0.0 0.00 0.00 0.00 85 1017.6
20260506100503 54 0 0.0 0.0 0.00 0.00 0.00 85 1017.5
20260506100004 54 0 0.0 0.0 0.00 0.00 0.00 85 1017.4
20260506095505 54 0 0.0 0.0 0.00 0.00 0.00 85 1017.5
20260506095005 54 0 0.0 0.0 0.00 0.00 0.00 85 1017.4
20260506094005 55 0 0.0 0.0 0.00 0.00 0.00 85 1017.3
20260506093504 55 0 0.0 0.0 0.00 0.00 0.00 85 1017.3
20260506093005 55 0 0.0 0.0 0.00 0.00 0.00 85 1017.3
20260506092503 55 0 0.0 0.0 0.00 0.00 0.00 85 1017.3
20260506091503 55 0 0.0 0.0 0.00 0.00 0.00 85 1017.2
20260506091005 55 0 0.0 0.0 0.00 0.00 0.00 85 1017.2
20260506090504 55 0 0.0 0.0 0.00 0.00 0.00 85 1017.2
20260506090004 55 0 0.0 0.0 0.00 0.00 0.00 85 1017.1
20260506085503 55 0 0.0 0.0 0.00 0.00 0.00 85 1017.1
20260506085004 55 0 0.0 0.0 0.00 0.00 0.00 85 1017.1
20260506084504 55 0 0.0 0.0 0.00 0.00 0.00 85 1017.0
20260506084004 55 0 0.0 0.0 0.00 0.00 0.00 84 1017.0
20260506083004 55 0 0.0 0.0 0.00 0.00 0.00 85 1017.0
20260506082503 55 0 0.0 0.0 0.00 0.00 0.00 85 1017.0
20260506082004 55 0 0.0 0.0 0.00 0.00 0.00 85 1017.0
20260506081504 55 0 0.0 0.0 0.00 0.00 0.00 85 1017.0
20260506081005 55 194 0.0 1.0 0.00 0.00 0.00 86 1017.0
20260506080504 55 194 0.0 1.0 0.00 0.00 0.00 86 1016.9
20260506073505 54 0 0.0 0.0 0.00 0.00 0.00 88 1016.8
20260506072505 54 0 0.0 0.0 0.00 0.00 0.00 89 1016.8
20260506072006 54 0 0.0 0.0 0.00 0.00 0.00 89 1016.7
20260506071505 54 0 0.0 0.0 0.00 0.00 0.00 89 1016.7
20260506071005 54 0 0.0 0.0 0.00 0.00 0.00 89 1016.7
20260506062006 53 0 0.0 0.0 0.00 0.00 0.00 88 1016.2
20260506061505 53 0 0.0 0.0 0.00 0.00 0.00 88 1016.1
20260506061006 53 0 0.0 0.0 0.00 0.00 0.00 88 1016.0
20260506060504 53 0 0.0 0.0 0.00 0.00 0.00 88 1015.9
20260506051006 55 0 0.0 0.0 0.00 0.00 0.00 85 1015.5
20260506050505 55 0 0.0 0.0 0.00 0.00 0.00 85 1015.6
20260506045005 56 0 0.0 0.0 0.00 0.00 0.00 84 1015.4